| time (UTC) | temp C | wind direction | speed KPH | gust KPH | rain 1hr cm | rain 24hr cm | rain mn cm | humidity % | barometer mb |
| 20260505041557 | 20 | 56 | 0.0 | 3.2 | 0.00 | 0.00 | 0.00 | 91 | 1017.3 |
| 20260505040058 | 20 | 0 | 0.0 | 1.6 | 0.00 | 0.00 | 0.00 | 91 | 1017.5 |
| 20260505034553 | 20 | 80 | 0.0 | 3.2 | 0.00 | 0.00 | 0.00 | 91 | 1017.6 |
| 20260505033050 | 20 | 0 | 0.0 | 4.8 | 0.00 | 0.00 | 0.00 | 90 | 1017.7 |
| 20260505031606 | 20 | 53 | 0.0 | 1.6 | 0.00 | 0.00 | 0.00 | 91 | 1017.8 |
| 20260505030049 | 20 | 0 | 0.0 | 4.8 | 0.00 | 0.00 | 0.00 | 91 | 1017.9 |
| 20260505024557 | 20 | 0 | 0.0 | 3.2 | 0.00 | 0.00 | 0.00 | 90 | 1017.8 |
| 20260505023105 | 20 | 0 | 1.6 | 4.8 | 0.00 | 0.00 | 0.00 | 89 | 1017.8 |
| 20260505021553 | 20 | 0 | 1.6 | 6.4 | 0.00 | 0.00 | 0.00 | 88 | 1017.7 |
| 20260505020048 | 20 | 0 | 0.0 | 3.2 | 0.00 | 0.00 | 0.00 | 88 | 1017.4 |
| 20260505014558 | 20 | 71 | 0.0 | 4.8 | 0.00 | 0.00 | 0.00 | 89 | 1017.3 |
| 20260505013106 | 20 | 0 | 0.0 | 0.0 | 0.00 | 0.00 | 0.00 | 88 | 1017.2 |
| 20260505011551 | 20 | 0 | 0.0 | 4.8 | 0.00 | 0.00 | 0.00 | 88 | 1017.1 |
| 20260505010049 | 21 | 0 | 0.0 | 3.2 | 0.00 | 0.00 | 0.00 | 87 | 1016.8 |
| 20260505004556 | 21 | 54 | 0.0 | 3.2 | 0.00 | 0.00 | 0.00 | 86 | 1016.7 |
| 20260505003050 | 21 | 95 | 0.0 | 3.2 | 0.00 | 0.00 | 0.00 | 86 | 1016.6 |
| 20260505001554 | 21 | 0 | 0.0 | 3.2 | 0.00 | 0.00 | 0.00 | 85 | 1016.6 |
| 20260505000112 | 22 | 113 | 0.0 | 4.8 | 0.00 | 0.00 | 0.00 | 84 | 1016.6 |
| 20260504234551 | 22 | 0 | 0.0 | 4.8 | 0.00 | 0.00 | 0.00 | 84 | 1016.8 |
| 20260504233056 | 22 | 76 | 3.2 | 9.7 | 0.00 | 0.00 | 0.00 | 84 | 1016.6 |
| 20260504231549 | 22 | 151 | 3.2 | 8.0 | 0.00 | 0.00 | 0.00 | 86 | 1016.6 |
| 20260504230106 | 22 | 173 | 3.2 | 11.3 | 0.00 | 0.00 | 0.00 | 86 | 1016.4 |
| 20260504224557 | 22 | 159 | 3.2 | 16.1 | 0.00 | 0.00 | 0.00 | 85 | 1016.2 |
| 20260504223104 | 22 | 200 | 3.2 | 11.3 | 0.00 | 0.00 | 0.00 | 85 | 1016.1 |
| 20260504221603 | 22 | 150 | 6.4 | 14.5 | 0.00 | 0.00 | 0.00 | 84 | 1015.9 |
| 20260504220059 | 22 | 173 | 4.8 | 14.5 | 0.00 | 0.00 | 0.00 | 83 | 1015.7 |
| 20260504214557 | 23 | 187 | 6.4 | 14.5 | 0.00 | 0.00 | 0.00 | 82 | 1015.5 |
| 20260504213054 | 23 | 118 | 8.0 | 16.1 | 0.00 | 0.00 | 0.00 | 82 | 1015.3 |
| 20260504211553 | 23 | 234 | 6.4 | 14.5 | 0.00 | 0.00 | 0.00 | 82 | 1015.5 |
| 20260504210056 | 23 | 171 | 4.8 | 16.1 | 0.00 | 0.00 | 0.00 | 82 | 1015.4 |
| 20260504204601 | 23 | 89 | 8.0 | 16.1 | 0.00 | 0.00 | 0.00 | 82 | 1015.2 |
| 20260504203102 | 23 | 188 | 4.8 | 19.3 | 0.00 | 0.00 | 0.00 | 81 | 1015.2 |
| 20260504201554 | 24 | 190 | 6.4 | 16.1 | 0.00 | 0.00 | 0.00 | 81 | 1015.2 |
| 20260504200058 | 23 | 192 | 11.3 | 20.9 | 0.00 | 0.00 | 0.00 | 83 | 1015.5 |
| 20260504194556 | 22 | 85 | 4.8 | 19.3 | 0.00 | 0.00 | 0.00 | 86 | 1015.5 |
| 20260504193058 | 23 | 258 | 6.4 | 19.3 | 0.00 | 0.00 | 0.00 | 85 | 1015.6 |
| 20260504191606 | 25 | 161 | 11.3 | 25.7 | 0.00 | 0.00 | 0.00 | 78 | 1015.7 |
| 20260504184555 | 25 | 150 | 11.3 | 24.1 | 0.00 | 0.00 | 0.00 | 76 | 1015.8 |
| 20260504183104 | 25 | 96 | 8.0 | 19.3 | 0.00 | 0.00 | 0.00 | 75 | 1016.0 |
| 20260504181601 | 25 | 178 | 3.2 | 19.3 | 0.00 | 0.00 | 0.00 | 74 | 1016.0 |
| 20260504180114 | 25 | 259 | 6.4 | 25.7 | 0.00 | 0.00 | 0.00 | 75 | 1016.1 |
| 20260504174550 | 25 | 178 | 9.7 | 20.9 | 0.00 | 0.00 | 0.00 | 72 | 1016.2 |
| 20260504173054 | 25 | 123 | 4.8 | 19.3 | 0.00 | 0.00 | 0.00 | 72 | 1016.3 |
| 20260504171558 | 25 | 88 | 4.8 | 20.9 | 0.00 | 0.00 | 0.00 | 72 | 1016.4 |